FENGYUN 1C DEB, 31088

Orbit data source: Space-Track

FENGYUN 1C DEB, 31088 is space debris in SSO originally from a launch on Mon, 10 May 1999 UTC launched from the Taiyaun Space Center, China (TSC). Fengyun 1C debris stems from the Chinese weather satellite Fengyun-1C, which was intentionally destroyed by a Chinese anti-satellite missile in 2007. This event dramatically increased the amount of space debris, with thousands of trackable fragments posing hazards to satellites and human spaceflight. The Fengyun 1C debris cloud has become a focal point in discussions about space sustainability and the need for international regulations to prevent the creation of new debris.

Loading next visibility...
Identifier
31088, 1999-025BGJ
Orbit
SSO
Country
Flag of CNCN / PRC
Related business
Manufacturer
Unknown
Mission
Spacecraft
Bus & Motor
Unknown
Mass
Unknown
Launch date (UTC)
1999-05-10 (27 years ago)
Launch vehicle
Unknown
Launch site
Taiyaun Space Center, China (TSC)
Object type
Payload
Rocket body
Debris
Shape & HBR
Unknown shape, 0.1 m
Radar Cross Section
Small (<0.1 m²)

Expand to show TLE details & history
Last TLE update: 17 hours ago

TLE from 17 hours ago
0 FENGYUN 1C DEB
1 31088U 99025BGJ 26063.15181487  .00005097  00000-0  20063-2 0  9991
2 31088  99.4008 134.7130 0030559 184.5250 251.8834 14.29425443977123
Epoch: 2026-03-04T03:38Z
TLE epoch observation values (Epoch: 2026-03-04T03:38:36.804Z)
Latitude
73.32146°
Longitude
-115.20562°
Altitude
813.07 km
Speed
7.45 km/s
True Right ascension
06h 45m 28s
True Declination
73° 13' 39"
Sunlit
Object was in daylight at epoch
Visualization orbit readout
Latitude
Unknown
Longitude
Unknown
Altitude
Unknown
Speed
Unknown
Apparent Right ascension
Unknown
Apparent Declination
Unknown
Sunlit
N/A
Visualization observer readout
Local Sidereal Time
00:48:53
Azimuth
Unknown
Elevation
Unknown
Doppler factor
Unknown
Orbital elements
Apogee altitude
812.74 km
Perigee altitude
768.925 km
Semi-major axis
7,168.969 km
Eccentricity
0.00306
Inclination
99.4008°
RAAN
134.713°
Arg. of periapsis
184.525°
True anomaly
251.55098°
Mean anomaly
251.8834°
Eccentric anomaly
251.71715°
Mean motion
3.57568 °/min
Orbital period
100.68 mins
BSTAR
0.0020063
Loading maneuver chart data...
Computing Atmospheric mass density...

Documentation

Showing up to 5 results
|